Hourly Data Report for January 25, 2004

All times are specified in Local Standard Time (LST). Add 1 hour to adjust for Daylight Saving Time where and when it is observed.

SHERBROOKE A
QUEBEC

45°26'00.000" N
71°41'00.000" W
241.40 m
7028124
71610
YSC

Download Data

Hourly Data (January 2004)
Hourly Data Report for January 25, 2004
TIME Temp Definition
°C
Dew Point Temp Definition
°C
Rel Hum Definition
%
Wind Dir Definition
10's deg

Wind Spd Definition
km/h
Visibility Definition
km
Stn Press Definition
kPa
Hmdx Definition


Wind Chill Definition


Weather Definition


00:00 -26.9 -33.6 53 27 19 15.0 98.58   -39  
01:00 -27.3 -34.4 51 29 20 15.0 98.68   -40 Snow
02:00 -27.3 -34.6 50 28 20 15.0 98.80   -40 Snow
03:00 -27.6 -34.8 50 28 20 15.0 98.89   -40  
04:00 -28.2 -35.1 52 25 13 15.0 98.95   -38  
05:00 -28.1 -34.8 53 27 17 15.0 98.98   -40  
06:00 -28.4 -35.0 53 26 15 15.0 99.04   -39  
07:00 -28.5 -34.8 55 25 13 15.0 99.10   -39  
08:00 -27.9 -34.2 55 25 15 24.1 99.20   -39 Clear
09:00 -26.8 -33.6 53 26 15 24.1 99.24   -37 Clear
10:00 -25.5 -32.9 50 27 22 24.1 99.26   -38 Mainly Clear
11:00 -24.4 -31.6 51 28 28 24.1 99.26   -38 Mainly Clear
12:00 -22.7 -31.0 47 27 22 24.1 99.23   -34 Mostly Cloudy
13:00 -22.4 -30.1 50 27 28 24.1 99.21   -35 Mainly Clear
14:00 -21.3 -30.3 44 26 22 24.1 99.30   -33 Clear
15:00 -20.8 -30.3 42 26 22 24.1 99.40   -32 Clear
16:00 -21.2 -30.2 44 27 19 24.1 99.40   -32 Clear
17:00 -22.7 -30.6 49 27 13 24.1 99.41   -32 Clear
18:00 -25.7 -32.2 54 24 7 15.0 99.43   -32  
19:00 -28.2 -33.9 58 22 7 15.0 99.45   -35  
20:00 -25.9 -31.7 58 20 4 15.0 99.50   -30  
21:00 -31.1 -37.0 56 22 7 15.0 99.54   -39  
22:00 -32.7 -38.2 58 17 4 15.0 99.56   -37  
23:00 -32.1 -37.5 59 15 4 15.0 99.62   -37  

Notes on Data Quality.

Legend

  • E = Estimated
  • M = Missing
  • NA = Not Available
Date modified: